Location: Newark
(0.5300°S, 127.4800°E)
Time: 08:53:33
(UTC+00:00)

Vanguard 3 - Pass Details

Date: 27 September 2019
Orbit: 508 x 3262 km, 33.3° (Epoch: 13 October)

Event Time Altitude Azimuth Distance (km) Brightness Sun altitude
Rises 19:02:00 0° 259° (W) 3,224 - -34.7°
Reaches altitude 10° 19:04:12 10° 269° (W) 2,524 - -34.2°
Maximum altitude 19:09:44 36° 334° (NNW) 1,830 - -32.8°
Exits shadow 19:10:58 34° 352° (N) 1,996 8.9 -32.5°
Drops below altitude 10° 19:18:52 10° 36° (NE) 4,195 11.1 -30.5°
Sets 19:23:42 0° 44° (NE) 5,696 12.0 -29.3°
